CW0104 Weather Reports


Display with metric or nautical units.
time (UTC)temp
F
wind
direction
speed
MPH
gust
MPH
rain 1hr
in
rain 24hr
in
rain mn
in
humidity
%
barometer
mb
20180816061844 74 309 0.0 0.0 0.00 0.00 0.00 84 1013.2
20180816060920 74 309 0.0 0.0 0.00 0.00 0.00 83 1013.2
20180816055914 74 309 0.0 0.0 0.00 0.00 0.00 83 1013.2
20180816054920 74 309 0.0 0.0 0.00 0.00 0.00 83 1013.2
20180816054424 74 309 0.0 0.0 0.00 0.00 0.00 83 1013.2
20180816053919 74 309 0.0 0.0 0.00 0.00 0.00 83 1013.2
20180816053417 74 309 0.0 0.0 0.00 0.00 0.00 83 1013.2
20180816052411 74 309 0.0 0.0 0.00 0.00 0.00 83 1013.2
20180816050922 74 309 0.0 0.0 0.00 0.00 0.00 83 1013.3
20180816050350 74 309 0.0 0.0 0.00 0.00 0.00 82 1013.3
20180816045918 74 309 0.0 0.0 0.00 0.00 0.00 82 1013.3
20180816044848 74 309 0.0 0.0 0.00 0.00 0.00 82 1013.5
20180816043354 74 309 0.0 0.0 0.00 0.00 0.00 81 1013.2
20180816042913 75 309 0.0 0.0 0.00 0.00 0.00 81 1012.9
20180816042357 75 309 0.0 0.0 0.00 0.00 0.00 81 1012.8
20180816040913 75 309 0.0 0.0 0.00 0.00 0.00 81 1012.7
20180816040430 75 309 0.0 0.0 0.00 0.00 0.00 81 1012.7
20180816034908 75 309 0.0 0.0 0.00 0.00 0.00 81 1013.1
20180816033929 75 309 0.0 0.0 0.00 0.00 0.00 81 1012.9
20180816032420 76 309 0.0 0.0 0.00 0.00 0.00 81 1013.1
20180816031848 76 309 0.0 0.0 0.00 0.00 0.00 81 1013.1
20180816030852 76 309 0.0 0.0 0.00 0.00 0.00 81 1013.1
20180816030348 76 309 0.0 0.0 0.00 0.00 0.00 81 1013.2
20180816025911 76 309 0.0 0.0 0.00 0.00 0.00 81 1013.1
20180816024917 76 309 0.0 0.0 0.00 0.00 0.00 81 1013.1
20180816024415 76 309 0.0 0.0 0.00 0.00 0.00 81 1013.1
20180816023428 76 309 0.0 0.0 0.00 0.00 0.00 81 1013.2
20180816022351 76 309 0.0 0.0 0.00 0.00 0.00 81 1013.2
20180816020845 77 309 0.0 0.0 0.00 0.00 0.00 81 1013.1
20180816020423 77 309 0.0 0.0 0.00 0.00 0.00 81 1013.1
20180816014921 77 309 0.0 0.0 0.00 0.00 0.00 81 1012.8
20180816013846 77 309 0.0 0.0 0.00 0.00 0.00 81 1012.7
20180816012849 78 309 0.0 0.0 0.00 0.00 0.00 80 1012.7
20180816011847 78 309 0.0 0.0 0.00 0.00 0.00 80 1012.7
20180816005922 78 309 0.0 0.0 0.00 0.00 0.00 79 1012.5
20180816005352 79 309 0.0 0.0 0.00 0.00 0.00 79 1012.4
20180816004916 79 309 0.0 0.0 0.00 0.00 0.00 79 1012.3
20180816004347 79 309 0.0 0.0 0.00 0.00 0.00 79 1012.3
20180816003414 79 309 0.0 0.0 0.00 0.00 0.00 78 1012.2
20180816002344 80 309 0.0 0.0 0.00 0.00 0.00 78 1012.0
20180816001909 80 309 0.0 0.0 0.00 0.00 0.00 77 1012.0
20180816001351 80 309 0.0 0.0 0.00 0.00 0.00 77 1011.9
20180816000912 80 309 0.0 0.0 0.00 0.00 0.00 76 1011.8
20180815235901 81 309 0.0 0.0 0.00 0.00 0.00 75 1011.6
20180815235421 81 309 0.0 0.0 0.00 0.00 0.00 75 1011.5
20180815234422 82 309 0.0 0.0 0.00 0.00 0.00 74 1011.4
20180815233854 82 309 0.0 0.0 0.00 0.00 0.00 73 1011.2
20180815231923 83 309 0.0 0.0 0.00 0.00 0.00 71 1011.0
20180815231414 84 309 0.0 0.0 0.00 0.00 0.00 70 1011.0
20180815230403 84 309 0.0 0.0 0.00 0.00 0.00 69 1010.9
20180815225920 84 309 0.0 0.0 0.00 0.00 0.00 69 1010.8
20180815225417 85 309 0.0 0.0 0.00 0.00 0.00 69 1010.6
20180815224403 85 309 0.0 0.0 0.00 0.00 0.00 66 1010.6
20180815222911 85 309 0.0 0.0 0.00 0.00 0.00 63 1010.5
20180815222405 85 309 0.0 0.0 0.00 0.00 0.00 64 1010.5
20180815221421 85 309 0.0 0.0 0.00 0.00 0.00 64 1010.6
20180815220354 85 309 0.0 0.0 0.00 0.00 0.00 64 1010.6
20180815215355 84 309 0.0 0.0 0.00 0.00 0.00 65 1010.6
20180815214402 84 309 0.0 1.0 0.00 0.00 0.00 64 1010.6
20180815213847 84 309 0.0 1.0 0.00 0.00 0.00 64 1010.6
20180815211418 84 309 0.0 0.0 0.00 0.00 0.00 64 1010.6
20180815210903 84 309 0.0 1.0 0.00 0.00 0.00 63 1010.6
20180815204913 84 294 0.0 1.0 0.00 0.00 0.00 64 1010.6
20180815204347 84 315 0.0 2.0 0.00 0.00 0.00 63 1010.5
20180815203905 84 323 0.0 4.0 0.00 0.00 0.00 62 1010.5
20180815203406 84 338 0.0 4.0 0.00 0.00 0.00 63 1010.4
20180815201900 84 337 0.0 5.0 0.00 0.00 0.00 64 1010.5
20180815201352 83 334 0.0 5.0 0.00 0.00 0.00 64 1010.5
20180815200848 83 267 0.0 1.0 0.00 0.00 0.00 65 1010.5
20180815200428 83 262 0.0 1.0 0.00 0.00 0.00 65 1010.5
20180815195910 83 262 0.0 1.0 0.00 0.00 0.00 66 1010.5
20180815195350 83 261 0.0 3.0 0.00 0.00 0.00 65 1010.4
20180815194901 83 327 0.0 3.0 0.00 0.00 0.00 65 1010.5
20180815194400 83 236 0.0 1.0 0.00 0.00 0.00 66 1010.3
20180815193356 83 0 0.0 1.0 0.00 0.00 0.00 66 1010.5
20180815192846 83 0 0.0 1.0 0.00 0.00 0.00 66 1010.5
20180815192402 83 5 0.0 1.0 0.00 0.00 0.00 66 1010.5
20180815191401 83 5 0.0 1.0 0.00 0.00 0.00 65 1010.5
20180815190855 83 5 0.0 1.0 0.00 0.00 0.00 66 1010.5
20180815190409 83 5 0.0 1.0 0.00 0.00 0.00 67 1010.5
20180815185855 83 5 0.0 1.0 0.00 0.00 0.00 67 1010.5
20180815184917 82 5 0.0 4.0 0.00 0.00 0.00 66 1010.5
20180815183407 82 302 0.0 4.0 0.00 0.00 0.00 67 1010.5
20180815182921 82 341 1.0 4.0 0.00 0.00 0.00 67 1010.5
20180815182422 82 345 0.0 3.0 0.00 0.00 0.00 68 1010.5
20180815181427 82 321 0.0 1.0 0.00 0.00 0.00 68 1010.5
20180815175913 81 353 2.0 6.0 0.00 0.00 0.00 67 1010.6
20180815173855 81 354 0.0 3.0 0.00 0.00 0.00 70 1010.5
20180815173353 81 327 1.0 3.0 0.00 0.00 0.00 71 1010.5
20180815172908 81 337 0.0 1.0 0.00 0.00 0.00 72 1010.5
20180815172413 81 337 0.0 3.0 0.00 0.00 0.00 71 1010.6
20180815171901 81 337 0.0 3.0 0.00 0.00 0.00 71 1010.6
20180815170923 80 331 0.0 1.0 0.00 0.01 0.00 72 1010.8
20180815170412 80 331 0.0 1.0 0.00 0.01 0.00 72 1010.9
20180815165924 80 330 0.0 2.0 0.00 0.01 0.00 74 1011.0
20180815165427 80 325 0.0 4.0 0.00 0.01 0.00 74 1010.9
20180815164425 79 287 0.0 4.0 0.00 0.02 0.00 76 1010.7
20180815162916 79 0 0.0 5.0 0.00 0.02 0.00 78 1010.8
20180815162401 78 4 1.0 5.0 0.00 0.02 0.00 79 1010.9
20180815161401 78 339 0.0 0.0 0.00 0.02 0.00 83 1010.9
20180815160910 78 339 0.0 1.0 0.00 0.02 0.00 83 1011.0
20180815160420 77 338 0.0 1.0 0.00 0.02 0.00 85 1011.0
20180815155901 77 338 0.0 2.0 0.00 0.02 0.00 86 1011.0
20180815155418 77 339 0.0 2.0 0.00 0.02 0.00 87 1010.8
20180815154422 76 346 0.0 1.0 0.00 0.02 0.00 91 1010.6
20180815153920 76 341 0.0 1.0 0.00 0.02 0.00 92 1010.7
20180815152414 74 355 0.0 4.0 0.00 0.02 0.00 95 1010.8
20180815151847 74 355 0.0 2.0 0.00 0.02 0.00 96 1010.9
20180815151353 74 353 0.0 2.0 0.00 0.02 0.00 96 1010.9
20180815150847 74 345 0.0 1.0 0.00 0.02 0.00 96 1010.9
20180815145910 74 350 0.0 1.0 0.00 0.02 0.00 97 1011.0
20180815144351 73 332 0.0 1.0 0.00 0.02 0.00 97 1011.0
20180815134926 72 268 0.0 0.0 0.00 0.02 0.00 98 1011.0
20180815132856 72 298 0.0 1.0 0.00 0.02 0.00 97 1010.9
20180815132426 72 298 0.0 1.0 0.00 0.02 0.00 97 1010.8
20180815131926 72 298 0.0 0.0 0.00 0.02 0.00 97 1010.9
20180815130858 72 272 0.0 1.0 0.00 0.02 0.00 97 1010.6
20180815125858 71 227 0.0 0.0 0.00 0.02 0.00 97 1010.6
20180815124404 71 227 0.0 0.0 0.00 0.02 0.00 97 1010.7
20180815123914 71 227 0.0 0.0 0.00 0.02 0.00 97 1010.6
20180815121926 71 227 0.0 1.0 0.00 0.02 0.00 97 1010.5
20180815121352 71 227 0.0 0.0 0.00 0.02 0.00 97 1010.5
20180815120857 71 227 0.0 0.0 0.00 0.02 0.00 97 1010.5
20180815120348 71 227 0.0 0.0 0.00 0.02 0.00 97 1010.5
20180815115409 71 227 0.0 1.0 0.00 0.02 0.00 97 1010.5
20180815114426 71 227 0.0 0.0 0.00 0.02 0.00 97 1010.4
20180815113402 71 227 0.0 0.0 0.00 0.02 0.00 97 1010.4
20180815112929 71 227 0.0 0.0 0.00 0.02 0.00 97 1010.2
20180815112359 71 227 0.0 0.0 0.00 0.02 0.00 97 1010.2
20180815111853 71 227 0.0 0.0 0.00 0.02 0.00 96 1010.2
20180815111429 71 227 0.0 0.0 0.00 0.02 0.00 96 1010.3
20180815110407 71 227 0.0 0.0 0.00 0.02 0.00 96 1010.1
20180815105918 71 227 0.0 0.0 0.00 0.02 0.00 96 1010.1
20180815105346 71 227 0.0 0.0 0.00 0.02 0.00 96 1010.1
20180815103857 70 227 0.0 0.0 0.00 0.02 0.00 96 1010.2
20180815102902 70 227 0.0 0.0 0.00 0.02 0.00 96 1010.1
20180815101850 70 227 0.0 0.0 0.00 0.02 0.00 96 1010.1
20180815100904 70 227 0.0 0.0 0.00 0.02 0.00 96 1010.1
20180815100403 70 227 0.0 0.0 0.00 0.02 0.00 96 1010.1
20180815095909 70 227 0.0 0.0 0.00 0.02 0.00 96 1010.0
20180815094423 70 227 0.0 0.0 0.00 0.02 0.00 96 1010.0
20180815093401 70 227 0.0 0.0 0.00 0.02 0.00 96 1009.8
20180815092903 70 227 0.0 0.0 0.00 0.02 0.00 96 1009.8
20180815092419 70 227 0.0 0.0 0.00 0.02 0.00 96 1009.9
20180815091916 70 227 0.0 0.0 0.00 0.02 0.00 96 1009.8
20180815091423 70 227 0.0 0.0 0.00 0.02 0.00 96 1009.7
20180815090915 70 227 0.0 0.0 0.00 0.02 0.00 96 1009.6
20180815085918 70 227 0.0 0.0 0.00 0.02 0.00 96 1009.7
20180815085427 71 227 0.0 0.0 0.00 0.02 0.00 95 1009.6
20180815084916 71 227 0.0 0.0 0.00 0.02 0.00 95 1009.5
20180815084414 71 227 0.0 0.0 0.00 0.02 0.00 95 1009.5
20180815082858 71 227 0.0 0.0 0.00 0.02 0.00 95 1009.5
20180815082408 71 227 0.0 0.0 0.00 0.02 0.00 95 1009.5
20180815081854 71 227 0.0 0.0 0.00 0.02 0.00 95 1009.5
20180815081357 71 227 0.0 0.0 0.00 0.02 0.00 95 1009.5
20180815080402 71 227 0.0 0.0 0.00 0.02 0.00 95 1009.5
20180815075915 71 227 0.0 0.0 0.00 0.02 0.00 95 1009.5
20180815075427 71 227 0.0 0.0 0.00 0.02 0.00 95 1009.5
20180815074858 71 227 0.0 0.0 0.00 0.02 0.00 95 1009.5
20180815073931 71 227 0.0 0.0 0.00 0.02 0.00 95 1009.8
20180815073347 70 227 0.0 0.0 0.00 0.02 0.00 95 1010.0
20180815072930 70 227 0.0 0.0 0.00 0.02 0.00 95 1010.0
20180815072426 70 227 0.0 0.0 0.00 0.02 0.00 95 1010.0
20180815071413 70 227 0.0 0.0 0.00 0.02 0.00 94 1010.0
20180815065418 70 227 0.0 0.0 0.00 0.02 0.00 94 1010.0
20180815064849 70 227 0.0 0.0 0.00 0.02 0.00 94 1010.0
20180815064401 70 227 0.0 0.0 0.00 0.02 0.00 94 1010.0
20180815063854 70 227 0.0 0.0 0.00 0.02 0.00 94 1010.0
20180815062854 70 227 0.0 0.0 0.00 0.02 0.00 94 1009.9